Wind_Speed
11 11 10 9 11 12 14 15 16 16 14 14 15 16 16 17 18 19 20 21 23 24 24 24 24 25 26 26 26 25 25 28 29 30 30 32 33 34 35 35 35 35
14 15 15 12 10 10 12 13 15 16 16 16 16 16 17 17 18 20 21 23 24 24 24 25 25 25 25 26 26 24 24 26 28 29 30 32 34 33 34 34 34 35
13 15 17 17 15 13 13 13 13 13 15 17 17 17 18 18 19 20 21 23 25 25 23 23 24 26 25 26 26 25 25 26 28 29 30 32 34 32 33 34 34 34
13 13 15 17 18 17 16 15 12 12 14 16 18 18 18 18 19 20 20 21 23 24 23 22 23 24 24 25 25 25 25 26 27 28 28 30 32 31 32 34 34 33
15 15 15 16 18 19 18 16 15 15 16 18 20 21 21 20 19 18 19 20 21 22 23 22 22 22 23 24 25 26 26 27 27 27 27 30 33 32 32 34 34 34
15 14 15 17 19 21 20 18 17 17 19 20 21 22 23 23 21 19 19 19 20 21 22 23 23 23 23 24 26 28 28 29 28 27 28 31 33 33 32 33 34 36
15 14 14 18 20 21 21 21 20 18 17 18 19 21 22 23 24 24 24 23 21 21 22 23 23 24 24 25 26 28 29 29 29 28 29 30 31 32 32 32 34 36
17 17 17 19 20 20 22 22 22 21 19 19 19 19 19 19 21 23 25 25 24 22 22 23 23 24 25 25 26 28 30 30 29 30 30 29 30 31 33 33 33 34
18 18 19 20 21 21 22 23 22 22 22 22 22 21 19 18 18 19 20 21 22 22 23 25 24 24 24 24 25 26 29 30 30 31 31 29 30 31 33 34 34 33
19 19 20 21 21 22 24 25 25 23 23 24 24 24 24 22 21 20 19 19 19 19 21 24 25 25 24 24 24 23 26 29 30 30 31 30 29 30 32 33 33 32
20 20 20 21 21 22 23 25 26 25 24 24 25 26 27 26 26 23 20 19 19 18 19 21 21 23 23 22 21 21 23 28 29 27 27 29 27 27 28 27 27 28
20 19 20 21 21 22 23 24 26 26 23 23 24 26 27 27 27 25 21 19 18 17 18 20 20 21 22 21 21 21 22 25 26 24 24 27 26 24 25 24 24 27
21 21 21 22 22 23 23 24 25 26 24 22 23 25 26 27 27 25 21 19 18 16 14 17 20 22 23 22 21 21 21 22 23 22 22 24 25 24 24 23 24 26
21 21 22 23 23 23 23 24 25 26 25 24 24 25 25 26 27 25 22 19 17 16 15 15 17 21 23 23 22 22 22 22 22 20 21 24 25 24 24 24 24 23
20 20 21 22 22 22 23 24 25 26 26 25 25 26 26 28 28 26 24 21 18 17 17 17 17 18 20 20 21 22 22 22 22 21 23 26 27 25 25 25 24 22
20 21 21 22 23 23 23 23 24 24 24 25 26 27 26 27 30 29 27 26 24 21 19 19 18 18 19 19 19 21 23 23 23 23 23 24 24 24 25 25 23 23
21 22 23 23 24 24 24 24 25 25 24 23 24 27 27 27 30 32 32 31 30 27 23 21 21 21 21 20 20 20 22 24 24 23 23 23 22 23 25 25 22 22
21 22 23 24 24 25 25 26 26 26 25 24 24 26 27 28 31 34 35 34 33 32 29 26 25 24 23 22 21 21 22 23 24 24 23 24 24 25 27 25 22 21
21 22 22 23 24 25 25 25 27 28 28 28 27 26 25 26 28 32 35 35 35 35 34 32 30 28 26 24 22 21 22 22 23 24 24 25 25 26 26 23 21 22
21 22 23 23 24 25 25 25 27 28 28 29 30 29 28 27 25 28 31 32 33 35 35 36 35 34 31 28 25 22 21 21 22 23 24 24 24 24 25 23 22 21
22 22 23 24 25 26 26 26 28 29 29 29 29 30 31 30 27 28 29 29 31 34 35 37 38 37 36 33 30 25 21 19 21 22 23 23 24 24 24 24 24 21
23 23 23 24 26 26 26 27 29 30 30 29 28 29 31 30 29 30 30 28 30 33 35 36 37 38 39 38 34 30 25 19 18 19 21 22 23 23 24 23 23 21
24 24 24 25 25 26 27 27 28 29 30 29 28 29 30 30 29 30 30 30 31 33 35 37 37 38 39 40 39 35 30 24 19 17 17 19 20 21 21 22 22 21
24 24 25 25 25 25 27 28 27 26 28 28 27 28 29 29 29 29 29 31 32 33 34 36 37 38 39 40 41 39 36 31 24 18 15 15 16 17 18 18 19 21
24 25 26 26 26 26 27 30 30 27 26 26 26 26 26 28 29 29 30 32 33 33 33 34 35 37 39 39 40 41 40 37 31 23 18 14 13 13 13 13 14 19
22 24 25 26 27 26 27 30 33 31 27 26 26 25 25 26 27 28 30 33 34 33 34 34 33 35 37 38 39 40 40 40 37 32 26 20 16 13 11 9 11 16
Wind_Direction
336 327 316 303 297 296 296 294 291 291 295 303 304 300 295 293 295 295 292 291 292 291 290 286 283 279 271 265 262 260 261 262 262 261 257 254 250 245 242 241 240 239
355 348 340 331 320 310 303 294 288 290 294 299 303 300 295 291 291 292 293 296 297 295 292 287 285 284 278 273 269 262 260 263 263 263 261 257 255 251 246 243 241 240
358 355 347 339 330 317 307 301 296 292 290 292 295 294 291 289 289 292 296 299 301 299 296 290 287 286 282 279 275 267 264 266 266 266 265 258 256 254 249 244 242 241
356 356 352 343 333 321 313 307 300 289 280 279 281 281 281 283 285 289 296 300 302 301 299 295 291 290 286 282 277 272 270 271 270 269 264 258 256 255 249 242 240 239
1 0 352 342 333 328 324 314 301 293 285 280 278 277 276 279 285 291 295 297 298 298 299 299 298 296 291 286 282 279 274 272 271 268 262 257 256 255 248 241 237 235
5 360 348 345 344 340 336 326 313 307 302 300 297 292 287 283 284 287 293 298 298 298 300 302 302 298 292 287 285 282 277 273 271 268 264 260 256 253 248 241 236 234
3 356 350 354 352 346 342 336 330 326 320 316 312 308 305 300 293 288 288 292 296 302 305 302 300 300 296 292 288 283 278 275 274 271 268 264 257 252 248 243 237 235
4 1 2 359 353 350 347 341 338 336 331 325 319 316 318 318 314 307 299 293 290 298 307 305 301 301 300 297 293 287 282 277 275 274 272 267 261 254 247 244 241 237
7 6 7 1 356 355 349 343 343 343 341 338 334 329 325 320 314 311 311 303 291 290 300 307 307 305 302 298 296 293 290 285 279 277 276 272 265 258 249 245 242 236
10 10 8 3 358 356 352 350 352 352 351 348 345 342 337 330 321 312 309 309 301 291 295 305 310 309 303 298 297 297 293 291 285 278 277 275 267 258 251 245 239 234
13 11 7 3 358 358 358 357 355 353 355 354 351 350 346 342 338 332 323 318 313 304 298 304 312 312 303 296 297 297 293 294 289 278 275 277 270 257 250 245 236 234
12 10 7 2 0 1 1 1 357 353 356 359 357 356 354 350 347 344 340 332 322 313 304 301 305 308 302 295 292 292 293 295 290 278 272 276 275 264 254 246 234 234
9 10 9 6 5 5 3 3 359 355 360 6 4 4 3 359 356 352 347 337 327 327 323 305 298 299 299 295 290 288 291 293 289 279 271 274 277 271 261 255 243 236
10 10 9 8 8 6 5 5 1 360 4 8 9 11 12 11 7 2 356 344 331 330 329 313 298 295 296 296 291 290 292 292 286 276 269 272 276 273 265 263 257 245
12 11 9 9 9 7 6 6 4 4 5 6 7 9 14 19 18 13 7 358 347 337 328 320 311 303 299 299 296 294 294 291 284 274 269 273 276 275 270 268 267 261
15 13 12 12 11 10 9 8 6 5 5 7 6 3 6 13 17 19 18 12 5 356 344 333 325 315 306 300 296 293 291 289 284 277 274 275 276 274 273 272 272 269
18 16 14 13 12 12 12 11 10 9 8 8 6 3 2 3 7 13 17 17 14 9 1 350 340 332 321 307 297 289 285 284 282 280 275 272 271 272 276 279 278 275
19 17 16 14 12 11 11 11 11 11 12 13 10 7 4 1 2 4 5 8 12 13 10 3 353 345 336 321 306 295 287 281 278 278 275 271 271 273 277 280 280 278
20 18 18 15 11 10 9 10 11 11 11 12 11 9 7 5 5 3 0 1 4 7 9 8 2 356 349 337 323 307 295 285 277 273 271 272 273 274 273 273 275 277
22 20 19 16 14 13 11 10 11 11 10 10 10 9 8 8 8 6 3 359 356 359 6 9 7 4 359 350 339 325 308 294 282 275 272 271 272 271 268 267 270 274
23 22 19 17 16 16 14 12 10 10 11 11 10 8 8 8 7 5 4 0 356 358 5 7 6 6 5 360 352 343 329 307 290 283 278 273 271 270 267 266 269 272
24 22 21 20 17 16 16 15 11 8 10 12 11 8 8 8 8 5 5 7 7 6 6 5 3 4 5 5 2 356 348 333 309 293 285 278 274 271 268 266 264 263
25 23 23 22 19 17 16 16 14 9 8 10 11 9 8 8 9 6 6 10 13 12 9 6 4 3 4 7 7 5 2 356 339 318 302 288 279 273 270 267 260 255
26 26 25 24 22 19 15 16 16 12 9 10 10 10 9 7 7 7 6 7 10 12 13 11 8 6 5 6 8 9 9 8 359 345 330 309 292 281 275 273 266 255
26 28 27 25 25 21 16 17 19 16 13 13 12 12 11 5 5 9 10 8 7 10 13 12 10 10 9 7 8 9 10 10 8 2 353 340 325 309 288 272 264 256
24 27 26 25 24 20 15 17 20 19 18 16 14 14 13 7 6 11 13 10 9 12 14 12 9 8 9 8 7 8 9 9 10 9 5 359 350 336 315 281 254 253
Height
1522 1521 1521 1520 1520 1520 1519 1519 1519 1518 1518 1518 1518 1517 1516 1515 1515 1515 1515 1514 1513 1512 1511 1510 1510 1510 1510 1509 1510 1510 1510 1509 1509 1509 1509 1508 1508 1509 1510 1511 1512 1513
1523 1521 1520 1519 1519 1518 1518 1517 1517 1517 1517 1517 1516 1515 1514 1514 1513 1513 1512 1511 1510 1510 1509 1508 1507 1507 1507 1507 1507 1508 1507 1506 1506 1506 1506 1505 1505 1506 1507 1507 1508 1509
1523 1522 1521 1519 1518 1517 1516 1516 1515 1515 1515 1515 1514 1513 1512 1512 1511 1511 1510 1509 1508 1507 1507 1506 1505 1505 1505 1504 1504 1504 1504 1503 1503 1503 1503 1502 1502 1503 1504 1504 1505 1506
1523 1522 1521 1520 1518 1517 1516 1515 1514 1513 1513 1512 1511 1510 1510 1509 1509 1508 1508 1507 1507 1505 1505 1504 1504 1503 1503 1502 1502 1501 1501 1500 1499 1500 1500 1499 1500 1500 1500 1501 1503 1503
1523 1522 1521 1520 1518 1517 1515 1514 1513 1512 1511 1510 1509 1508 1507 1507 1507 1506 1506 1505 1505 1504 1503 1503 1503 1502 1501 1500 1499 1499 1498 1497 1496 1496 1497 1496 1496 1496 1497 1499 1500 1500
1523 1522 1521 1520 1518 1517 1515 1513 1512 1511 1510 1509 1507 1507 1506 1505 1505 1504 1504 1503 1503 1503 1502 1501 1501 1501 1500 1499 1498 1497 1496 1494 1494 1494 1493 1493 1493 1493 1494 1495 1497 1497
1523 1522 1521 1520 1519 1517 1515 1513 1511 1510 1509 1507 1506 1505 1504 1504 1503 1503 1502 1502 1502 1501 1501 1500 1500 1499 1497 1496 1496 1495 1494 1493 1492 1491 1490 1490 1490 1490 1490 1491 1492 1493
1523 1521 1521 1520 1519 1517 1515 1513 1511 1509 1507 1505 1504 1503 1502 1502 1501 1500 1500 1500 1500 1500 1499 1498 1497 1496 1495 1493 1493 1492 1491 1491 1490 1489 1488 1487 1487 1487 1486 1487 1488 1489
1523 1522 1522 1521 1519 1518 1515 1513 1511 1509 1506 1504 1503 1501 1500 1500 1498 1497 1497 1497 1497 1498 1497 1496 1495 1494 1493 1491 1490 1489 1488 1488 1488 1487 1485 1485 1485 1484 1484 1484 1484 1485
1523 1522 1522 1521 1519 1518 1515 1513 1511 1508 1506 1504 1502 1500 1499 1498 1496 1495 1495 1495 1495 1496 1495 1494 1493 1492 1491 1489 1488 1486 1485 1486 1486 1485 1484 1483 1482 1481 1481 1481 1480 1481
1524 1523 1522 1521 1519 1518 1516 1514 1511 1508 1506 1504 1502 1500 1498 1496 1495 1494 1493 1494 1494 1494 1493 1493 1492 1490 1488 1487 1486 1485 1484 1483 1483 1483 1482 1481 1480 1479 1478 1479 1479 1479
1525 1524 1523 1521 1520 1518 1516 1514 1512 1508 1506 1504 1502 1500 1498 1496 1494 1493 1492 1493 1493 1492 1491 1490 1488 1486 1484 1483 1482 1481 1481 1480 1479 1479 1480 1479 1478 1477 1476 1477 1478 1478
1526 1525 1523 1522 1520 1519 1517 1515 1512 1509 1506 1504 1502 1501 1499 1496 1494 1493 1492 1492 1491 1490 1489 1487 1485 1483 1481 1480 1479 1478 1477 1476 1476 1476 1476 1476 1476 1476 1475 1475 1476 1476
1527 1526 1525 1523 1522 1520 1518 1516 1513 1510 1507 1505 1503 1501 1499 1497 1495 1493 1492 1491 1490 1488 1486 1484 1482 1481 1479 1478 1476 1476 1475 1473 1473 1473 1473 1473 1474 1474 1473 1472 1472 1474
1529 1527 1526 1524 1522 1520 1518 1516 1514 1511 1509 1506 1504 1502 1500 1498 1496 1494 1492 1490 1488 1487 1484 1482 1480 1479 1477 1475 1474 1473 1472 1471 1471 1471 1470 1470 1470 1471 1471 1470 1470 1471
1530 1528 1527 1525 1523 1520 1519 1517 1515 1512 1510 1508 1506 1504 1502 1499 1497 1495 1492 1490 1488 1485 1483 1481 1479 1477 1475 1474 1472 1471 1470 1469 1468 1468 1468 1468 1467 1468 1468 1468 1468 1468
1531 1529 1528 1526 1523 1521 1519 1517 1515 1513 1511 1510 1508 1506 1503 1501 1498 1495 1493 1490 1488 1485 1483 1480 1477 1475 1473 1471 1470 1468 1467 1466 1465 1465 1465 1465 1465 1465 1465 1465 1465 1466
1533 1531 1529 1527 1525 1523 1521 1518 1516 1514 1512 1510 1509 1507 1505 1502 1499 1496 1494 1491 1489 1486 1483 1480 1477 1474 1471 1469 1467 1466 1464 1463 1463 1463 1462 1462 1462 1462 1462 1461 1462 1462
1534 1532 1531 1529 1527 1525 1522 1520 1517 1515 1513 1511 1509 1508 1506 1503 1501 1498 1495 1492 1489 1486 1483 1480 1476 1473 1470 1467 1465 1463 1462 1461 1460 1460 1459 1459 1459 1459 1459 1459 1459 1459
1534 1533 1532 1530 1528 1526 1524 1521 1519 1517 1515 1513 1510 1508 1506 1504 1502 1500 1497 1494 1491 1488 1485 1481 1477 1473 1470 1467 1464 1461 1460 1458 1458 1457 1456 1456 1456 1456 1456 1457 1457 1457
1535 1534 1533 1531 1528 1527 1525 1523 1520 1518 1516 1514 1512 1510 1507 1505 1503 1501 1498 1496 1492 1489 1485 1482 1478 1474 1470 1467 1463 1460 1458 1456 1455 1454 1454 1453 1453 1453 1454 1454 1455 1455
1536 1534 1533 1532 1530 1528 1526 1524 1522 1520 1517 1516 1514 1511 1509 1507 1505 1502 1500 1497 1494 1490 1486 1483 1479 1475 1471 1467 1463 1459 1456 1454 1453 1452 1451 1451 1451 1451 1451 1451 1452 1453
1537 1535 1534 1533 1531 1529 1527 1525 1524 1521 1519 1517 1515 1513 1511 1508 1506 1504 1501 1498 1495 1491 1487 1484 1480 1476 1472 1468 1464 1459 1456 1453 1451 1450 1449 1449 1448 1448 1448 1449 1450 1451
1538 1537 1535 1534 1532 1531 1529 1527 1525 1523 1521 1519 1517 1515 1513 1510 1508 1506 1503 1500 1497 1493 1489 1486 1482 1478 1474 1470 1466 1461 1457 1454 1452 1450 1448 1447 1446 1446 1447 1447 1447 1448
1539 1538 1536 1535 1534 1532 1530 1528 1526 1524 1522 1521 1519 1517 1515 1512 1510 1507 1505 1502 1498 1495 1492 1488 1484 1480 1476 1472 1468 1463 1459 1456 1453 1450 1448 1446 1445 1445 1445 1445 1444 1444
1540 1539 1538 1537 1535 1534 1532 1530 1528 1525 1523 1522 1520 1519 1517 1514 1511 1509 1506 1503 1500 1497 1493 1490 1486 1482 1479 1474 1470 1466 1462 1458 1454 1451 1448 1447 1445 1444 1444 1443 1442 1442